Location: Gettysburg
(39.8310°N, 77.2310°W)
Time: 07:03:57
(UTC-04:00)

Envisat - Pass Details

Date: 28 May 2023
Orbit: 763 x 764 km, 98.2° (Epoch: 21 September)

Event Time Altitude Azimuth Distance (km) Brightness Sun altitude
Rises 03:54:32 0° 29° (NNE) 3,234 7.9 -17.2°
Reaches altitude 10° 03:57:29 10° 47° (NE) 2,303 6.8 -16.9°
Maximum altitude 04:01:05 19° 93° (E) 1,739 5.3 -16.4°
Drops below altitude 10° 04:04:41 10° 138° (SE) 2,293 5.4 -15.9°
Sets 04:07:36 0° 156° (SSE) 3,214 6.0 -15.6°
